Location: ??????
(41.3164°N, 22.6615°E)
Time: 03:45:31
(UTC+00:00)

Oscar 19 - Pass Details

Date: 01 July 2022
Orbit: 773 x 790 km, 98.8° (Epoch: 11 August)

Event Time Altitude Azimuth Distance (km) Brightness Sun altitude
Rises 02:04:45 0° 13° (NNE) 3,260 14.9 -9.1°
Reaches altitude 10° 02:07:04 10° 14° (NNE) 2,327 14.0 -8.7°
Maximum altitude 02:12:12 89° 97° (E) 779 10.7 -8.0°
Drops below altitude 10° 02:17:19 10° 195° (SSW) 2,312 12.6 -7.3°
Enters shadow 02:19:01 - 195° (SSW) 2,999 13.2 -7.0°
